Location: Stonelick Lake State Park
(39.2170°N, 84.0850°W)
Time: 13:05:45
(UTC-05:00)

Amateur Radio Satellites - All Passes

Search period start: 01 March 2017 12:35
Search period end: 02 March 2017 12:35
Location: Stonelick Lake State Park, 39.2170°N, 84.0850°W

Satellite Date Start Highest point End Downlink Frequencies (MHz)
Time Altitude Azimuth
BUGSAT 1 01 Mar 12:36:41 12:40:41 62° 258° (WSW) 12:44:48 437.445
QB50P2 01 Mar 12:38:13 12:40:55 16° 267° (W) 12:43:39 145.880/145.840
Gurwin Techsat 1B 01 Mar 12:41:46 12:45:55 24° 65° (ENE) 12:50:03 435.225
Tancredo 1 01 Mar 12:46:21 12:49:22 36° 31° (NNE) 12:52:23 437.200
AO-7 01 Mar 12:46:47 12:47:51 10° 43° (NE) 12:48:56 .
ESTCUBE 1 01 Mar 12:49:46 12:53:49 35° 290° (WNW) 12:57:52 437.505/2401.250
VELOX 1 01 Mar 12:54:49 12:59:16 85° 105° (ESE) 13:03:41 145.980
Oscar 19 01 Mar 12:58:28 13:03:31 59° 73° (ENE) 13:08:34 437.125/150
AO-85 01 Mar 13:08:20 13:12:05 45° 243° (WSW) 13:15:55 145.980
BEESAT 3 01 Mar 13:11:35 13:13:40 14° 44° (NE) 13:15:45 437.485
50 SAT 01 Mar 13:11:35 13:15:04 77° 284° (WNW) 13:18:31 437.505
ITAMSAT 1 01 Mar 13:44:27 13:47:39 17° 62° (ENE) 13:50:50 435.822/435.867
BEESAT 2 01 Mar 13:59:35 14:02:21 17° 46° (NE) 14:05:05 435.950
SPROUT 01 Mar 14:05:25 14:08:30 19° 293° (WNW) 14:11:35 437.525
DX 1 01 Mar 14:07:40 14:11:38 35° 289° (WNW) 14:15:35 434.975-435.025
ISS 01 Mar 14:08:37 14:11:38 33° 225° (SW) 14:14:37 437.550
UKube-1 01 Mar 14:10:14 14:14:22 45° 288° (WNW) 14:18:28 .
Gurwin Techsat 1B 01 Mar 14:20:33 14:25:34 43° 261° (W) 14:30:37 435.225
Tancredo 1 01 Mar 14:22:54 14:25:29 22° 228° (SW) 14:28:01 437.200
ITUPSAT 1 01 Mar 14:26:36 14:29:39 17° 93° (E) 14:32:42 437.325
BEESAT 01 Mar 14:29:48 14:33:08 19° 94° (E) 14:36:26 436.000
AO-7 01 Mar 14:30:41 14:38:37 50° 64° (ENE) 14:46:32 .
Oscar 19 01 Mar 14:40:14 14:43:12 15° 268° (W) 14:46:09 437.125/150
BEESAT 3 01 Mar 14:47:42 14:51:41 65° 242° (WSW) 14:55:38 437.485
NO-84 01 Mar 14:53:00 14:54:56 16° 124° (SE) 14:56:56 435.350 FM
ITAMSAT 1 01 Mar 15:21:25 15:26:34 62° 258° (WSW) 15:31:46 435.822/435.867
PCSat 01 Mar 15:34:08 15:39:31 75° 116° (ESE) 15:44:57 145.827
BEESAT 2 01 Mar 15:36:27 15:40:21 46° 243° (WSW) 15:44:13 435.950
RS-15 01 Mar 15:38:59 15:48:39 31° 102° (ESE) 15:58:34 29.354- 29.394
MOZHAYETS 4 01 Mar 15:45:40 15:50:02 42° 98° (E) 15:54:22
ITUPSAT 1 01 Mar 16:03:07 16:07:44 48° 288° (WNW) 16:12:18 437.325
BEESAT 01 Mar 16:06:34 16:11:05 43° 289° (WNW) 16:15:34 436.000
AO-7 01 Mar 16:23:58 16:31:29 37° 262° (W) 16:39:03 .
NO-84 01 Mar 16:29:17 16:32:13 37° 323° (NW) 16:35:25 435.350 FM
DOVE 4 01 Mar 16:44:31 16:46:13 12° 64° (ENE) 16:47:56 437.250
CUBESAT XI-V 01 Mar 16:57:45 17:02:03 39° 98° (E) 17:06:20 437.345
KAITUO 1B 01 Mar 17:03:48 17:05:39 13° 66° (ENE) 17:07:30 145.475/437.950
CUTE-I 01 Mar 17:04:43 17:08:52 24° 65° (ENE) 17:13:04 437.470
XW-2F 01 Mar 17:15:21 17:18:18 22° 69° (ENE) 17:21:17 145.980 - 146.000
KKS-1 01 Mar 17:18:35 17:23:05 78° 285° (WNW) 17:27:33 437.445
PCSat 01 Mar 17:19:53 17:23:30 18° 315° (NW) 17:27:09 145.827
XW-2D 01 Mar 17:22:35 17:25:54 28° 71° (ENE) 17:29:13 145.860 - 145.880
MOZHAYETS 4 01 Mar 17:23:43 17:26:51 18° 294° (WNW) 17:29:57
XW-2B 01 Mar 17:27:38 17:31:03 31° 72° (ENE) 17:34:29 145.730 - 145.750
NUDT-PHONESAT 01 Mar 17:31:15 17:34:28 27° 71° (ENE) 17:37:43 437.300
XW-2C 01 Mar 17:36:16 17:39:53 40° 73° (ENE) 17:43:30 145.795 - 145.815
STARS 01 Mar 17:39:09 17:43:37 78° 103° (ESE) 17:48:03 437.465
RS-15 01 Mar 17:48:00 17:59:56 76° 304° (WNW) 18:12:23 29.354- 29.394
HO-68 01 Mar 17:49:47 17:54:44 21° 57° (ENE) 17:59:42 435.675
LilacSat-2 01 Mar 17:58:01 18:01:54 82° 77° (ENE) 18:05:48 437.200
M-CUBED/EXP-1 PRIME 01 Mar 18:04:54 18:08:49 54° 106° (ESE) 18:13:01 437.505
DOVE 4 01 Mar 18:19:23 18:23:25 53° 261° (W) 18:27:33 437.250
CUTE 1.7 + AOD 2 01 Mar 18:31:59 18:35:11 21° 68° (ENE) 18:38:23 437.475
KAITUO 1B 01 Mar 18:35:41 18:39:17 41° 262° (W) 18:42:55 145.475/437.950
CUBESAT XI-V 01 Mar 18:35:50 18:39:08 20° 294° (WNW) 18:42:25 437.345
CUTE-I 01 Mar 18:43:34 18:48:37 43° 261° (W) 18:53:43 437.470
XW-2F 01 Mar 18:49:11 18:52:20 24° 265° (W) 18:55:30 145.980 - 146.000
AAUSAT CUBESAT 2 01 Mar 18:56:25 18:58:03 12° 65° (ENE) 18:59:41 437.432
XW-2D 01 Mar 18:57:21 19:00:06 19° 266° (W) 19:02:51 145.860 - 145.880
XW-2A 01 Mar 19:00:41 19:04:03 65° 76° (ENE) 19:07:28 145.665 - 145.685
XW-2B 01 Mar 19:02:46 19:05:18 17° 267° (W) 19:07:50 145.730 - 145.750
NUDT-PHONESAT 01 Mar 19:05:47 19:08:24 18° 266° (W) 19:11:03 437.300
XW-2C 01 Mar 19:12:26 19:14:15 13° 268° (W) 19:16:04 145.795 - 145.815
STARS 01 Mar 19:18:53 19:19:17 10° 299° (WNW) 19:19:43 437.465
SEEDS 01 Mar 19:18:59 19:23:00 45° 73° (ENE) 19:27:02 437.485
STRAND 1 01 Mar 19:19:24 19:23:53 30° 96° (E) 19:28:20 437.568
AO-73 01 Mar 19:28:14 19:30:34 14° 64° (ENE) 19:32:54 145.935
Oscar 11 01 Mar 19:29:35 19:31:09 12° 63° (ENE) 19:32:42 .
YUBILEINY 01 Mar 19:34:29 19:38:05 13° 59° (ENE) 19:41:39 435.215
HO-68 01 Mar 19:34:30 19:41:40 78° 255° (WSW) 19:48:53 435.675
CUBEBUG 2 01 Mar 19:39:33 19:43:54 53° 74° (ENE) 19:48:26 437.445
M-CUBED/EXP-1 PRIME 01 Mar 19:41:04 19:42:55 13° 299° (WNW) 19:44:50 437.505
SO-50 01 Mar 20:02:37 20:03:17 10° 107° (ESE) 20:03:56 436.795
RS-15 01 Mar 20:04:59 20:15:00 28° 331° (NNW) 20:25:11 29.354- 29.394
UWE-3 01 Mar 20:06:26 20:10:54 65° 75° (ENE) 20:15:29 435.000/436.395/437.385
CUTE 1.7 + AOD 2 01 Mar 20:06:59 20:10:48 31° 263° (W) 20:14:38 437.475
ZACube-1 01 Mar 20:16:24 20:20:44 49° 73° (ENE) 20:25:09 437.345
AAUSAT CUBESAT 2 01 Mar 20:28:57 20:33:01 55° 260° (W) 20:37:06 437.432
SEEDS 01 Mar 20:56:42 20:58:54 14° 268° (W) 21:01:07 437.485
STRAND 1 01 Mar 20:58:29 21:02:59 31° 292° (WNW) 21:07:28 437.568
AO-73 01 Mar 21:01:50 21:06:15 57° 260° (W) 21:10:46 145.935
Oscar 11 01 Mar 21:02:24 21:06:43 64° 260° (W) 21:11:02 .
DELFI C3 01 Mar 21:17:34 21:21:26 56° 74° (ENE) 21:25:18 145.870
CUBEBUG 2 01 Mar 21:18:32 21:20:52 14° 270° (W) 21:23:13 437.445
NO-84 01 Mar 21:26:39 21:29:10 16° 27° (NNE) 21:31:48 435.350 FM
YUBILEINY 01 Mar 21:27:55 21:36:38 71° 80° (E) 21:45:17 435.215
HO-68 01 Mar 21:28:11 21:30:24 11° 272° (W) 21:32:38 435.675
SO-50 01 Mar 21:38:23 21:43:05 81° 301° (WNW) 21:47:44 436.795
UWE-3 01 Mar 21:46:26 21:47:47 11° 271° (W) 21:49:09 435.000/436.395/437.385
FO-29 01 Mar 21:51:00 21:55:01 15° 85° (E) 21:58:48 435.910
ZACube-1 01 Mar 21:54:42 21:57:16 15° 269° (W) 21:59:52 437.345
LO-87 01 Mar 22:05:02 22:07:45 21° 70° (ENE) 22:10:30 145.935 - 145.965
O/OREOS (USA 219) 01 Mar 22:10:15 22:14:42 77° 108° (ESE) 22:19:12 437.305
ESTCUBE 1 01 Mar 22:12:35 22:15:33 18° 65° (ENE) 22:18:31 437.505/2401.250
PRISM 01 Mar 22:20:50 22:24:55 76° 285° (WNW) 22:29:00 437.425
RS-15 01 Mar 22:25:04 22:33:33 20° 7° (N) 22:41:59 29.354- 29.394
TIGRISAT 01 Mar 22:25:50 22:30:21 46° 99° (E) 22:34:45 435.000
UNISAT 6 01 Mar 22:27:04 22:31:39 51° 99° (E) 22:36:07 437.425
NO-84 01 Mar 23:03:18 23:07:21 79° 42° (NE) 23:11:40 435.350 FM
SRMSAT 01 Mar 23:19:02 23:20:23 11° 177° (S) 23:21:43 437.500
SPROUT 01 Mar 23:21:30 23:24:54 24° 68° (ENE) 23:28:19 437.525
SO-50 01 Mar 23:22:20 23:24:16 12° 320° (NW) 23:26:11 436.795
YUBILEINY 01 Mar 23:26:13 23:32:32 23° 279° (W) 23:38:49 435.215
DX 1 01 Mar 23:27:25 23:29:58 16° 65° (ENE) 23:32:32 434.975-435.025
UKube-1 01 Mar 23:30:22 23:31:53 12° 63° (ENE) 23:33:24 .
FO-29 01 Mar 23:33:34 23:41:04 86° 288° (WNW) 23:47:42 435.910
LO-87 01 Mar 23:38:27 23:41:07 20° 265° (W) 23:43:49 145.935 - 145.965
DUCHIFAT 1 01 Mar 23:43:36 23:47:01 23° 95° (E) 23:50:24 145.980
50 SAT 01 Mar 23:44:33 23:47:38 31° 72° (ENE) 23:50:45 437.505
ESTCUBE 1 01 Mar 23:47:42 23:52:00 43° 261° (W) 23:56:18 437.505/2401.250
VELOX 1 01 Mar 23:50:41 23:55:00 64° 75° (ENE) 23:59:21 145.980
O/OREOS (USA 219) 01 Mar 23:53:15 23:54:41 11° 308° (NW) 23:56:08 437.305
EO-79 01 Mar 23:59:56 00:04:01 43° 99° (E) 00:08:05 145.935-145.965
TIGRISAT 02 Mar 00:03:31 00:06:37 18° 295° (WNW) 00:09:41 435.000
UNISAT 6 02 Mar 00:05:02 00:07:53 16° 296° (WNW) 00:10:42 437.425
NANOSAT C BR1 02 Mar 00:13:33 00:17:46 57° 100° (E) 00:21:57 145.865
POLYITAN 1 02 Mar 00:18:57 00:23:16 73° 102° (ESE) 00:27:31 437.675
BUGSAT 1 02 Mar 00:20:02 00:23:12 20° 94° (E) 00:26:21 437.445
AIST 2D 02 Mar 00:22:04 00:25:29 46° 286° (WNW) 00:28:51 435.315
QB50P2 02 Mar 00:22:09 00:26:28 86° 105° (ESE) 00:30:44 145.880/145.840
PCSat 02 Mar 00:23:09 00:28:24 47° 57° (ENE) 00:33:36 145.827
RS-15 02 Mar 00:39:33 00:50:59 40° 41° (NE) 01:01:59 29.354- 29.394
NO-84 02 Mar 00:42:36 00:44:39 13° 237° (WSW) 00:46:44 435.350 FM
SPROUT 02 Mar 00:57:01 01:00:40 27° 264° (W) 01:04:21 437.525
DX 1 02 Mar 01:01:37 01:05:45 46° 260° (W) 01:09:56 434.975-435.025
UKube-1 02 Mar 01:03:06 01:07:21 63° 258° (WSW) 01:11:38 .
Oscar 19 02 Mar 01:11:47 01:15:44 22° 94° (E) 01:19:41 437.125/150
DUCHIFAT 1 02 Mar 01:19:00 01:22:38 28° 291° (WNW) 01:26:17 145.980
50 SAT 02 Mar 01:19:05 01:20:50 13° 267° (W) 01:22:35 437.505
FO-29 02 Mar 01:20:27 01:24:50 17° 305° (NW) 01:29:00 435.910
VELOX 1 02 Mar 01:31:04 01:31:51 10° 270° (W) 01:32:39 145.980
ITUPSAT 1 02 Mar 01:32:24 01:35:42 19° 65° (ENE) 01:39:01 437.325
BEESAT 02 Mar 01:35:16 01:38:44 20° 65° (ENE) 01:42:13 436.000
EO-79 02 Mar 01:36:47 01:39:25 16° 294° (WNW) 01:42:03 145.935-145.965
NANOSAT C BR1 02 Mar 01:51:09 01:52:58 13° 296° (WNW) 01:54:47 145.865
BUGSAT 1 02 Mar 01:54:47 01:58:35 32° 289° (WNW) 02:02:21 437.445
POLYITAN 1 02 Mar 01:58:08 01:58:24 10° 298° (WNW) 01:58:40 437.675
PCSat 02 Mar 02:07:15 02:11:27 23° 253° (WSW) 02:15:36 145.827
AO-7 02 Mar 02:35:57 02:40:03 14° 90° (E) 02:44:07 .
Gurwin Techsat 1B 02 Mar 02:37:24 02:42:45 82° 103° (ESE) 02:48:04 435.225
MOZHAYETS 4 02 Mar 02:46:16 02:50:31 36° 71° (ENE) 02:54:46
Oscar 19 02 Mar 02:50:24 02:55:10 41° 290° (WNW) 02:59:57 437.125/150
RS-15 02 Mar 02:52:15 03:04:24 70° 245° (WSW) 03:15:58 29.354- 29.394
ITUPSAT 1 02 Mar 03:08:33 03:13:09 46° 260° (W) 03:17:49 437.325
BEESAT 02 Mar 03:11:40 03:16:11 42° 261° (W) 03:20:45 436.000
AO-85 02 Mar 03:20:57 03:25:31 70° 119° (ESE) 03:29:46 145.980
ITAMSAT 1 02 Mar 03:35:19 03:40:25 50° 100° (E) 03:45:28 435.822/435.867
CUBESAT XI-V 02 Mar 03:59:53 04:04:04 34° 70° (ENE) 04:08:14 437.345
KKS-1 02 Mar 04:15:12 04:19:36 84° 75° (ENE) 04:24:03 437.445
Gurwin Techsat 1B 02 Mar 04:19:38 04:21:57 13° 300° (WNW) 04:24:17 435.225
MOZHAYETS 4 02 Mar 04:24:15 04:27:44 21° 266° (W) 04:31:15
AO-7 02 Mar 04:25:34 04:33:56 82° 107° (ESE) 04:42:13 .
STARS 02 Mar 04:34:23 04:38:40 59° 74° (ENE) 04:43:00 437.465
BEESAT 3 02 Mar 04:36:59 04:40:11 25° 113° (ESE) 04:43:26 437.485
M-CUBED/EXP-1 PRIME 02 Mar 04:50:48 04:53:57 50° 69° (ENE) 04:57:09 437.505
AO-85 02 Mar 05:03:54 05:06:18 14° 315° (NW) 05:08:37 145.980
RS-15 02 Mar 05:09:11 05:14:21 14° 266° (W) 05:19:27 29.354- 29.394
ISS 02 Mar 05:12:55 05:14:27 13° 129° (SE) 05:16:01 437.550
ITAMSAT 1 02 Mar 05:15:45 05:19:28 20° 296° (WNW) 05:23:10 435.822/435.867
Tancredo 1 02 Mar 05:23:52 05:26:05 17° 131° (SE) 05:28:20 437.200
BEESAT 2 02 Mar 05:26:41 05:30:17 36° 115° (ESE) 05:33:57 435.950
CUBESAT XI-V 02 Mar 05:37:52 05:41:28 22° 266° (W) 05:45:05 437.345
KAITUO 1B 02 Mar 06:08:38 06:11:22 19° 94° (E) 06:14:05 145.475/437.950
SO-50 02 Mar 06:10:47 06:15:16 65° 56° (ENE) 06:19:42 436.795
STARS 02 Mar 06:13:55 06:15:22 11° 269° (W) 06:16:50 437.465
BEESAT 3 02 Mar 06:14:21 06:17:42 26° 310° (NW) 06:21:05 437.485
DOVE 4 02 Mar 06:18:03 06:22:44 44° 98° (E) 06:27:37 437.250
AO-7 02 Mar 06:19:42 06:25:45 23° 306° (NW) 06:31:48 .
XW-2F 02 Mar 06:21:53 06:25:22 34° 97° (E) 06:28:49 145.980 - 146.000
XW-2D 02 Mar 06:29:46 06:33:27 46° 99° (E) 06:37:05 145.860 - 145.880
STRAND 1 02 Mar 06:34:03 06:38:47 38° 69° (ENE) 06:43:32 437.568
XW-2B 02 Mar 06:34:55 06:38:40 52° 100° (E) 06:42:21 145.730 - 145.750
NUDT-PHONESAT 02 Mar 06:36:13 06:39:49 43° 99° (E) 06:43:22 437.300
O/OREOS (USA 219) 02 Mar 06:43:41 06:45:56 13° 54° (NE) 06:48:10 437.305
XW-2C 02 Mar 06:43:45 06:47:34 71° 102° (ESE) 06:51:19 145.795 - 145.815
ISS 02 Mar 06:47:17 06:50:34 63° 324° (NW) 06:53:51 437.550
Tancredo 1 02 Mar 06:58:57 07:02:06 45° 326° (NNW) 07:05:15 437.200
CUTE-I 02 Mar 07:01:15 07:06:40 83° 103° (ESE) 07:12:03 437.470
HO-68 02 Mar 07:04:35 07:09:50 21° 93° (E) 07:15:02 435.675
BEESAT 2 02 Mar 07:05:09 07:08:09 20° 312° (NW) 07:11:12 435.950
LilacSat-2 02 Mar 07:06:33 07:10:19 54° 285° (WNW) 07:14:01 437.200
CUBEBUG 2 02 Mar 07:33:10 07:35:27 13° 90° (E) 07:37:40 437.445
KAITUO 1B 02 Mar 07:42:15 07:45:21 25° 290° (WNW) 07:48:26 145.475/437.950
CUTE 1.7 + AOD 2 02 Mar 07:52:23 07:56:26 44° 99° (E) 08:00:27 437.475
SO-50 02 Mar 07:53:19 07:55:08 12° 252° (WSW) 07:56:57 436.795
XW-2A 02 Mar 07:56:15 07:59:44 83° 102° (ESE) 08:03:10 145.665 - 145.685
DOVE 4 02 Mar 07:56:31 08:00:08 21° 293° (WNW) 08:03:52 437.250
XW-2F 02 Mar 07:56:59 07:59:13 15° 293° (WNW) 08:01:25 145.980 - 146.000
UWE-3 02 Mar 07:58:36 08:01:17 15° 91° (E) 08:03:55 435.000/436.395/437.385
XW-2D 02 Mar 08:05:49 08:07:13 12° 295° (WNW) 08:08:35 145.860 - 145.880
ZACube-1 02 Mar 08:08:53 08:09:35 10° 89° (E) 08:10:17 437.345
XW-2B 02 Mar 08:11:34 08:12:21 11° 295° (WNW) 08:13:08 145.730 - 145.750
NUDT-PHONESAT 02 Mar 08:11:50 08:13:19 12° 294° (WNW) 08:14:47 437.300
AAUSAT CUBESAT 2 02 Mar 08:12:31 08:15:50 23° 95° (E) 08:19:07 437.432
STRAND 1 02 Mar 08:13:56 08:18:02 24° 265° (W) 08:22:11 437.568
O/OREOS (USA 219) 02 Mar 08:21:15 08:25:48 67° 252° (WSW) 08:30:21 437.305
ISS 02 Mar 08:25:37 08:27:34 15° 342° (NNW) 08:29:32 437.550
YUBILEINY 02 Mar 08:35:52 08:40:16 15° 76° (ENE) 08:44:39 435.215
Tancredo 1 02 Mar 08:37:29 08:39:00 13° 345° (NNW) 08:40:30 437.200
SEEDS 02 Mar 08:39:05 08:43:15 78° 284° (WNW) 08:47:23 437.485
CUTE-I 02 Mar 08:43:32 08:45:58 13° 300° (WNW) 08:48:23 437.470
HO-68 02 Mar 08:50:58 08:58:03 67° 290° (WNW) 09:05:06 435.675
Oscar 11 02 Mar 08:51:07 08:54:40 24° 95° (E) 08:58:11 .
AO-73 02 Mar 08:51:16 08:55:12 29° 96° (E) 08:59:02 145.935
CUBEBUG 2 02 Mar 09:07:44 09:12:25 59° 286° (WNW) 09:17:00 437.445
PRISM 02 Mar 09:08:41 09:12:42 63° 74° (ENE) 09:16:44 437.425
TIGRISAT 02 Mar 09:23:11 09:27:18 35° 70° (ENE) 09:31:32 435.000
UNISAT 6 02 Mar 09:24:30 09:28:44 39° 71° (ENE) 09:33:03 437.425
CUTE 1.7 + AOD 2 02 Mar 09:29:30 09:31:52 15° 294° (WNW) 09:34:14 437.475
UWE-3 02 Mar 09:33:31 09:38:01 49° 287° (WNW) 09:42:23 435.000/436.395/437.385
ZACube-1 02 Mar 09:41:49 09:46:20 67° 285° (WNW) 09:50:43 437.345
FO-29 02 Mar 09:42:43 09:49:32 42° 66° (ENE) 09:56:45 435.910
AAUSAT CUBESAT 2 02 Mar 09:47:50 09:51:13 25° 290° (WNW) 09:54:37 437.432
YUBILEINY 02 Mar 10:26:48 10:35:37 84° 95° (E) 10:44:26 435.215
Oscar 11 02 Mar 10:27:06 10:30:44 27° 291° (WNW) 10:34:20 .
AO-73 02 Mar 10:27:39 10:31:16 24° 292° (WNW) 10:34:49 145.935
DELFI C3 02 Mar 10:30:13 10:34:08 73° 284° (WNW) 10:38:03 145.870
DUCHIFAT 1 02 Mar 10:35:09 10:37:40 16° 65° (ENE) 10:40:11 145.980
HO-68 02 Mar 10:41:47 10:44:26 12° 308° (NW) 10:47:05 435.675
EO-79 02 Mar 10:51:21 10:54:58 28° 69° (ENE) 10:58:35 145.935-145.965
AIST 2D 02 Mar 10:55:01 10:58:26 46° 75° (ENE) 11:01:54 435.315
TIGRISAT 02 Mar 11:00:34 11:04:03 21° 267° (W) 11:07:35 435.000
UNISAT 6 02 Mar 11:02:18 11:05:33 19° 267° (W) 11:08:53 437.425
NANOSAT C BR1 02 Mar 11:04:26 11:08:17 35° 71° (ENE) 11:12:10 145.865
LO-87 02 Mar 11:05:42 11:08:55 30° 97° (E) 11:12:09 145.935 - 145.965
BUGSAT 1 02 Mar 11:10:04 11:11:49 12° 64° (ENE) 11:13:35 437.445
POLYITAN 1 02 Mar 11:10:09 11:14:12 46° 72° (ENE) 11:18:18 437.675
QB50P2 02 Mar 11:13:17 11:17:25 54° 74° (ENE) 11:21:36 145.880/145.840
FO-29 02 Mar 11:27:39 11:34:26 41° 265° (W) 11:41:42 435.910
ISS 02 Mar 11:40:17 11:42:45 19° 23° (NNE) 11:45:12 437.550
ESTCUBE 1 02 Mar 11:41:00 11:45:14 40° 99° (E) 11:49:26 437.505/2401.250
VELOX 1 02 Mar 11:43:26 11:45:30 13° 92° (E) 11:47:34 145.980
Tancredo 1 02 Mar 11:51:02 11:53:38 22° 25° (NNE) 11:56:15 437.200
AO-85 02 Mar 11:53:22 11:57:03 38° 54° (NE) 12:00:46 145.980
DUCHIFAT 1 02 Mar 12:08:57 12:12:57 43° 261° (W) 12:17:01 145.980
Gurwin Techsat 1B 02 Mar 12:20:28 12:23:23 15° 61° (ENE) 12:26:19 435.225
EO-79 02 Mar 12:27:19 12:30:40 23° 265° (W) 12:34:05 145.935-145.965
